Regional Weather Roundup
Issued by NWS Grand Forks, ND

Home | Current Version | Previous Version | Text Only | Print | Product List | Glossary Off
Versions: 1 2 3 4 5 6 7 8 9 10 11 12 13 14 15 16 17 18 19 20 21 22 23 24 25 26 27 28 29 30 31 32 33 34 35 36 37 38 39 40 41 42 43 44 45 46 47 48 49 50

000
ASUS43 KFGF 261331
RWRFGF
PRAIRIE TO PINES  WEATHER ROUNDUP
NATIONAL WEATHER SERVICE EASTERN NORTH DAKOTA/GRAND FORKS ND
700 AM CST FRI DEC 26 2014

 **SATELLITE DATA USED TO AUGMENT SKY COVER AT AUTOMATED STATIONS**
 *****  WEATHER ACROSS EASTERN NORTH DAKOTA  *****

CITY           SKY/WX    TMP DP  RH WIND       PRES   REMARKS
GRAND FORKS    CLOUDY    24  18  77 N8        30.12R WCI  15
GRAND FRKS AFB CLOUDY    23  19  85 N8        30.12R WCI  14
GRAND FRKS NWS   N/A     23 N/A N/A N6          N/A  WCI  16
DEVILS LAKE    CLOUDY    16   9  73 NW16      30.12R WCI   0
FARGO          CLOUDY    24  19  81 N12       30.10R WCI  13
WAHPETON ARPT  CLOUDY    25  19  80 N13       30.10R WCI  13
$$

 ***** WEATHER ACROSS CENTRAL AND WESTERN NORTH DAKOTA  *****

CITY           SKY/WX    TMP DP  RH WIND       PRES   REMARKS
BISMARCK       CLOUDY    14   7  73 N12       30.16R WCI   0
MINOT          CLOUDY     7   2  80 E5        30.15R WCI  -2
JAMESTOWN      CLOUDY    21  17  84 NW13      30.10R WCI   9
MINOT AFB      CLOUDY     5   3  92 CALM      30.17R
GARRISON         N/A     13   8  81 NW8       30.13R WCI   2
WILLISTON      CLOUDY    12   9  87 N3        30.14R
DICKINSON      CLOUDY    17  12  80 NW3       30.07R
HETTINGER      CLOUDY    16  10  77 NW14      30.10R WCI   2
$$

 *****  OTHER AIRPORT OBSERVATIONS IN OUR AREA  *****

CITY           SKY/WX    TMP DP  RH WIND       PRES   REMARKS
WALHALLA         N/A     14  14 100 NW12      30.16R WCI   0
GRAFTON AIRPOR NOT AVBL
VALLEY CITY AR MIX PCPN  21  21 100 N13       30.10R WCI   9
CANDO          CLOUDY     9   7  92 N9        30.15R WCI  -5
CAVALIER APRT  CLOUDY    19  16  86 NW12      30.15R WCI   7
GWINNER        CLOUDY    27  25  93 N10       30.11R WCI  17
ROLLA          FAIR      -2  -6  84 NW9       30.13R WCI -18
 ***** THE ABOVE OBSERVATIONS ARE NON NWS ARE NOT QUALITY
       CONTROLLED AND MAY MIS-REPORT RAIN FOR SNOW...
$$

  *****  WEATHER ACROSS NORTHERN MINNESOTA  *****

CITY           SKY/WX    TMP DP  RH WIND       PRES   REMARKS
FLAG ISLAND    MOCLDY    19  18  93 NW9       30.06R WCI   9
WARROAD        CLOUDY    18  14  86 W3        30.09R
ROSEAU         CLOUDY    19  16  86 N3        30.10R
HALLOCK        CLOUDY    21  19  93 N3        30.12R
THF RVR FALLS  CLOUDY    23  19  86 NW8       30.09R WCI  14
BAUDETTE       FLURRIES  21  17  84 NW8       30.05R WCI  11
WASKISH        CLOUDY    23  19  86 CALM      30.06R
CROOKSTON      CLOUDY    21  19  93 N8        30.12R WCI  12
STEPHEN NDAWN    N/A     21  19  93 NW6         N/A  WCI  14
GREENBUSH NDAW   N/A     19  19 100 NW7         N/A  WCI  10
$$
  *****  WEATHER ACROSS CENTRAL AND WEST MINNESOTA  *****

CITY           SKY/WX    TMP DP  RH WIND       PRES   REMARKS
FOSSTON        CLOUDY    19  18  93 CALM      30.07R
BEMIDJI        CLOUDY    23  19  82 N7        30.03R WCI  15
PARK RAPIDS    CLOUDY    25  20  81 N10       30.01R WCI  15
ELBOW LAKE     CLOUDY    25  23  92 N10       30.04R WCI  15
WADENA         CLOUDY    25  19  80 N5        30.03R WCI  19
DETROIT LAKES  CLOUDY    25  23  93 N13       30.05R WCI  13
MOORHEAD       CLOUDY    25  23  93 N13       30.11R WCI  13
FERGUS FALLS   CLOUDY    25  21  86 N9        30.09R WCI  15
MORRIS MN      LGT SNOW  27  25  93 N9        30.03R WCI  17
STAPLES        CLOUDY    25  23  93 N7        30.02R WCI  17
$$
  *****  WEATHER ELSEWHERE ACROSS MINNESOTA  *****

CITY           SKY/WX    TMP DP  RH WIND       PRES   REMARKS
DULUTH         FLURRIES  27  21  78 N8        29.96R WCI  19
INTRNTL FALLS  CLOUDY    22  18  85 NW12      30.02R WCI  10
ELY            CLOUDY    25  23  93 CALM      29.98R
CLOQUET        FLURRIES  27  23  86 N7        29.98R WCI  19
WHEATON        CLOUDY    21  21 100 NW14G20   30.10R FOG     WCI   8
BRAINERD       CLOUDY    27  20  75 N8        30.00R WCI  19
HIBBING        CLOUDY    27  23  85 N5        29.99R WCI  22
ALEXANDRIA     LGT SNOW  26  23  88 N6        30.01R FOG     WCI  19
SAINT CLOUD    CLOUDY    31  25  78 N10       29.98R WCI  22
MINNEAPOLIS    CLOUDY    32  29  88 N14       29.93R WCI  22
$$

  *****  WEATHER ACROSS SOUTH DAKOTA  *****

CITY           SKY/WX    TMP DP  RH WIND       PRES   REMARKS
SIOUX FALLS    FLURRIES  26  23  88 N16       30.00R WCI  14
BROOKINGS      NOT AVBL
WATERTOWN      LGT SNOW  22  19  89 N16       30.02R FOG     WCI   8
HURON          CLOUDY    24  20  84 N13       30.07R WCI  12
SISSETON         N/A     24  21  88 N17       30.07R WCI  11
ABERDEEN       CLOUDY    24  20  84 NE9       30.10R WCI  14
MITCHELL       CLOUDY    26  23  88 N15       30.07R WCI  14
PIERRE         CLOUDY    24  21  88 N14       30.09R WCI  12
MOBRIDGE       CLOUDY    24  20  84 N6        30.08R WCI  17
RAPID CITY     CLOUDY    19  16  88 N10       30.06R WCI   7
$$

  *****  SOME WEATHER IN NEARBY STATES *****

CITY           SKY/WX    TMP DP  RH WIND       PRES   REMARKS
GLASGOW MT     PTCLDY    17  13  84 E10       30.05R WCI   5
GREAT FALLS MT CLOUDY    21  18  86 NW12      30.00R WCI   9
CHEYENNE WY    LGT SNOW  12   8  84 N6        29.86R FOG     WCI   3
SCOTTSBLUFF NE LGT SNOW  18  13  80 CALM      30.01R
OMAHA NE       CLOUDY    34  32  92 N15       29.92R WCI  24
DES MOINES IA  PTCLDY    35  29  78 S3        29.88R
DAVENPORT IA   MOCLDY    40  32  73 S14       29.93R
CHICAGO IL     PTCLDY    37  32  82 SW10      29.99R
EAU CLAIRE WI  CLOUDY    31  28  89 NE3       29.90R
LA CROSSE WI   CLEAR     26  24  92 CALM      29.90R
$$

  *****  SOME NATIONAL WEATHER *****

CITY           SKY/WX    TMP DP  RH WIND       PRES   REMARKS
LA GUARDIA NY  CLEAR     41  28  60 W12       30.24R
RALEIGH NC     MOCLDY    30  28  92 CALM      30.34R
ATLANTA GA     PTCLDY    39  33  79 NE5       30.30R
NEW ORLEANS LA CLOUDY    51  47  86 E6        30.19R
OKLAHOMA CITY  MOCLDY    48  42  80 S10       29.87R
ALBUQUERQUE NM CLOUDY    31  30  96 W3        29.77R
SALT LAKE CITY MOCLDY    24  17  74 N3        29.91R
LOS ANGELES CA CLEAR     51  17  26 NE10      29.98R
BOISE ID       CLOUDY    30  23  75 NW8       30.10R WCI  22
SEATTLE WA     CLOUDY    38  36  92 E5        30.33S
$$

*** WEATHER ACROSS MANITOBA...SASKATCHEWAN AND ONTARIO ***
                ***ONTARIO***

CITY           SKY/WX    TMP DP  RH WIND       PRES   REMARKS
GERALDTON      CLOUDY    27  25  93 SW6       29.91R WCI  20
THUNDER BAY    CLOUDY    28  27  93 W5        29.98R WCI  23
SIOUX LOOKOUT  CLOUDY    23  21  93 NW5       29.98  WCI  17
TORONTO        MOCLDY    32  30  93 SW7       30.16F
BIG TROUT LK   FLURRIES  16  14  93 NW7       29.93R WCI   6
PICKLE LAKE    FLURRIES  19  16  86 NW6       29.95R WCI  11
DRYDEN         FLURRIES  21  21 100 NW5       29.99R WCI  15
KENORA         FLURRIES  18  16  93 NW8       30.04R WCI   7
$$
                *** MANITOBA***

CITY           SKY/WX    TMP DP  RH WIND       PRES   REMARKS
BRANDON        MOCLDY    -8 -13  77 W13       30.16R WCI -28
DAUPHIN        FLURRIES  -4  -8  84 W10       30.20R WCI -21
ISLAND LAKE    FLURRIES   3  -2  78 NW9       30.06R WCI -11
PILOT MOUND      N/A     -2  -6  84 W8          N/A  WCI -17
THE PAS        CLEAR    -13 -18  77 NW7       30.18S WCI -29
THOMPSON       CLEAR    -22 -27  76 W6        30.10S WCI -38
WINNIPEG       LGT SNOW  12   7  79 NE8       30.17R WCI   1
CHURCHILL      LGT SNOW  -8 -13  77 W16       30.01R DRFTSNOWWCI -30
GILLAM         LGT SNOW -13 -18  77 W8        30.05R DRFTSNOWWCI -30
$$
                ***SASKATCHEWAN***

CITY           SKY/WX    TMP DP  RH WIND       PRES   REMARKS
ESTEVAN        FLURRIES  -2  -6  84 NW10      30.15R WCI -19
KINDERSLEY     MOCLDY     3   0  85 S5        30.09R WCI  -6
LLOYDMINSTER   CLEAR      3   0  85 SW9       30.04F WCI -11
PRINCE ALBERT  MOCLDY   -24 -29  76 CALM      30.18F
REGINA         CLOUDY     1  -2  85 N5        30.15R WCI  -8
YORKTON        CLOUDY    -8 -13  77 NW6       30.15  WCI -21
N. BATTLEFORD  CLOUDY     3   1  92 E3        30.14S
LA RONGE       CLEAR    -18 -22  83 SW3       30.15F
SASKATOON      CRYSTALS   0  -4  85 E2        30.17
SWIFT CURRENT  LGT SNOW   7   5  92 SE6       30.04R WCI  -3
$$
NOTE: THESE ARE AUTOMATED STATIONS WITH LIMITED QUALITY CONTROL
      "FAIR" INDICATES FEW OR NO CLOUDS BELOW 12,000 FEET WITH NO
      SIGNIFICANT WEATHER AND/OR OBSTRUCTIONS TO VISIBILITY.
      SKY/WX - SKY CONDITION AND SIGNIFICANT WEATHER.
      TMP - AIR TEMPERATURE.    DP   - DEWPOINT TEMPERATURE.
      RH  - RELATIVE HUMIDITY.  PRES - PRESSURE.
      HX  - HEAT INDEX.         WCI  - WIND CHILL INDEX.
$


USA.gov is the U.S. government's official web portal to all federal, state and local government web resources and services.